Location: *
(50.8160°S, 176.0219°W)
Time: 02:49:29
(UTC+00:00)

ATLAS 3B R/B - Pass Details

Date: 19 May 2026
Orbit: 937 x 1256 km, 63.8° (Epoch: 8 June)

Event Time Altitude Azimuth Distance (km) Brightness Sun altitude
Exits shadow 17:04:18 26° 218° (SW) 1,828 3.5 -20.9°
Maximum altitude 17:08:08 76° 135° (SE) 1,019 2.6 -20.3°
Drops below altitude 10° 17:14:45 10° 49° (NE) 2,828 5.7 -19.3°
Sets 17:17:26 0° 47° (NE) 3,820 6.5 -18.9°
